Columbia Falls, MT

7:09 AM MDT on July 26, 2016 (GMT -0600)
Glacier Park International

Weather History for KGPI - May, 2013

Change the Weather History Date:

Sunday, May 26, 2013

  Actual Average Record
Temperature  
Mean Temperature 52 °F 54 °F  
Max Temperature 71 °F 68 °F 90 °F (1986)
Min Temperature 32 °F 42 °F 25 °F (1967)
Degree Days  
Heating Degree Days 13 11  
Month to date heating degree days 309 363  
Since 1 July heating degree days 7214 7774  
Cooling Degree Days 0 0  
Month to date cooling degree days 0 0  
Year to date cooling degree days 0 0  
Growing Degree Days 1 (Base 50)    
Moisture  
Dew Point 36 °F    
Average Humidity 60    
Maximum Humidity 100    
Minimum Humidity 19    
Precipitation  
Precipitation 0.00 in 0.08 in 0.73 in (2011)
Month to date precipitation 2.21 1.56  
Year to date precipitation 5.56 6.19  
Snow  
Snow 0.00 in - - ()
Month to date snowfall T  
Year to date snowfall 9.2  
Since 1 July snowfall 18.0  
Snow Depth 0.00 in    
Sea Level Pressure  
Sea Level Pressure 29.94 in    
Wind  
Wind Speed 3 mph (East)    
Max Wind Speed 14 mph    
Max Gust Speed 18 mph    
Visibility 10 miles    
Events      
T = Trace of Precipitation, MM = Missing Value Source: NWS Daily Summary

Daily Weather History Graph

Daily Weather History Graph

Search for Another Location

Airport or City:

Trip Planner

Search our weather history database for the weather conditions in past years. The results will help you decide how hot, cold, wet, or windy it might be!

Date:

Astronomy

May. 26, 2013 Rise Set
Actual Time 5:44 AM MDT 9:24 PM MDT
Civil Twilight 5:05 AM MDT 10:03 PM MDT
Nautical Twilight 4:12 AM MDT 10:56 PM MDT
Astronomical Twilight 2:58 AM MDT 12:12 AM MDT
Moon 11:12 PM MDT 7:19 AM MDT
Length of Visible Light 16h 58m
Length of Day
15h 39m
Waning Gibbous, 96% of the Moon is Illuminated
May 26
Waning Gibbous
May 31
Last Quarter
Jun 8
New
Jun 16
First Quarter
Jun 23
Full

Hourly Weather History & Observations

Time (MDT) Temp. Windchill Dew Point Humidity Pressure Visibility Wind Dir Wind Speed Gust Speed Precip Events Conditions
12:55 AM 44.1 °F - 36.0 °F 73% 30.02 in 10.0 mi Calm Calm - N/A   Clear
1:55 AM 39.0 °F 36.8 °F 37.0 °F 93% 30.03 in 10.0 mi NNE 3.5 mph - N/A   Mostly Cloudy
2:55 AM 37.9 °F 35.5 °F 36.0 °F 93% 30.01 in 10.0 mi WNW 3.5 mph - N/A   Clear
3:55 AM 36.0 °F - 34.0 °F 93% 30.01 in 10.0 mi Calm Calm - N/A   Clear
4:55 AM 34.0 °F - 33.1 °F 96% 30.02 in 10.0 mi Calm Calm - N/A   Clear
5:55 AM 33.1 °F - 32.0 °F 96% 30.03 in 10.0 mi Calm Calm - N/A   Clear
6:55 AM 37.0 °F 34.5 °F 34.0 °F 89% 30.03 in 10.0 mi WNW 3.5 mph - N/A   Clear
7:55 AM 43.0 °F - 37.0 °F 80% 30.02 in 10.0 mi Calm Calm - N/A   Clear
8:55 AM 48.9 °F - 39.0 °F 69% 30.01 in 10.0 mi North 4.6 mph - N/A   Clear
9:55 AM 54.0 °F - 39.0 °F 57% 29.99 in 10.0 mi North 3.5 mph - N/A   Clear
11:55 AM 61.0 °F - 36.0 °F 39% 29.95 in 10.0 mi Variable 3.5 mph - N/A   Clear
12:55 PM 63.0 °F - 35.1 °F 35% 29.93 in 10.0 mi Calm Calm - N/A   Clear
1:55 PM 66.9 °F - 37.0 °F 33% 29.91 in 10.0 mi North 4.6 mph - N/A   Clear
2:55 PM 68.0 °F - 37.0 °F 32% 29.89 in 10.0 mi Variable 3.5 mph - N/A   Clear
3:55 PM 68.0 °F - 25.0 °F 20% 29.88 in 10.0 mi Calm Calm - N/A   Clear
4:55 PM 69.1 °F - 28.9 °F 22% 29.85 in 10.0 mi Calm Calm - N/A   Clear
5:55 PM 68.0 °F - 28.0 °F 22% 29.85 in 10.0 mi East 3.5 mph - N/A   Clear
6:55 PM 66.9 °F - 32.0 °F 27% 29.83 in 10.0 mi Calm Calm - N/A   Clear
7:55 PM 64.0 °F - 39.0 °F 40% 29.84 in 10.0 mi SSE 10.4 mph - N/A   Clear
8:55 PM 60.1 °F - 42.1 °F 51% 29.86 in 10.0 mi SSE 11.5 mph - N/A   Clear
9:55 PM 57.9 °F - 41.0 °F 53% 29.86 in 10.0 mi South 10.4 mph - N/A   Clear
10:55 PM 55.9 °F - 43.0 °F 62% 29.87 in 10.0 mi SSE 10.4 mph - N/A   Clear
11:55 PM 54.0 °F - 43.0 °F 66% 29.86 in 10.0 mi SSE 5.8 mph - N/A   Scattered Clouds